AirNav   Duncan Aviation - Near you to keep you flying
 
 1275 users online  

7IL0 Mussman Airport
Grant Park, Illinois, USA

GOING TO GRANT PARK?


FAA INFORMATION EFFECTIVE 01 DECEMBER 2022

Location

FAA Identifier: 7IL0
Lat/Long: 41-16-15.1230N 087-34-40.1330W
41-16.252050N 087-34.668883W
41.2708675,-87.5778147
(estimated)
Elevation: 705 ft. / 215 m (estimated)
Variation: 01W (1985)
From city: 3 miles NE of GRANT PARK, IL
Time zone: UTC -6 (UTC -5 during Daylight Saving Time)
Zip code: 60940

Airport Operations

Airport use: Private use. Permission required prior to landing
Control tower: no
ARTCC: CHICAGO CENTER
FSS: KANKAKEE FLIGHT SERVICE STATION
Attendance: MON-SAT 0700-1700
Wind indicator: yes
Segmented circle: no

Airport Communications

WX AWOS-AV at C56 (8 nm NW): 119.125 (708-534-5256)
WX AWOS-3PT at IGQ (16 nm N): 119.275 (708-889-6319)
WX AWOS-3 at IKK (17 nm SW): 128.475 (815-939-4044)

Nearby radio navigation aids

VOR radial/distance  VOR name  Freq  Var
EONr088/9.6PEOTONE VORTAC113.2002E
CGTr179/14.4CHICAGO HEIGHTS VORTAC114.2002E
JOTr114/37.2JOLIET VOR/DME112.3002E

Airport Services

Powerplant service: NONE

Runway Information

Runway 9/27

Dimensions: 2415 x 75 ft. / 736 x 23 m
Surface: turf
Runway edge lights: low intensity
LOW INTS RY LGTS ON REQUEST, CALL ARPT MGR.
Runway edge markings: DSPLCD THLD MKD WITH ORANGE CONES.
RUNWAY 9  RUNWAY 27
Traffic pattern: leftleft
Displaced threshold: no225 ft.
Obstructions: none15 ft. road

Airport Ownership and Management from official FAA records

Ownership: Privately-owned
Owner: CRAIG MUSSMAN
10250 N 16000 E RD
GRANT PARK, IL 60940
Phone (815) 465-6477
Manager: HECTOR SANOVAL
13509 E 8500 N RD
GRANT PARK, IL 60940
Phone (815) 295-7304

Airport Operational Statistics

Aircraft based on the field: 4
Single engine airplanes: 2
Multi engine airplanes: 1
Gliders airplanes: 1
    

Additional Remarks

ADDITIONAL PH - 815-450-3692
FOR CD CTC CHICAGO ARTCC AT 630-906-8921.

Instrument Procedures

There are no published instrument procedures at 7IL0.

Some nearby airports with instrument procedures:

C56 - Bult Field Airport (8 nm NW)
KIGQ - Lansing Municipal Airport (16 nm N)
05C - Griffith-Merrillville Airport (17 nm NE)
KIKK - Greater Kankakee Airport (17 nm SW)
KGYY - Gary/Chicago International Airport (22 nm N)
 
Loc | Ops | Rwys | IFR | FBO | Links
Com | Nav | Svcs | Stats | Notes
Area around 7IL0 (Mussman Airport)
 
Road maps at: MapQuest Bing Google
 
Aerial photo
No photo
 
Sectional chart

 
Airport distance calculator
Flying to Mussman Airport? Find the distance to fly.

From to 7IL0

Sunrise and sunset
Times for 07-Dec-2022
 Local
(UTC-6)
 Zulu
(UTC)
Morning civil twilight06:3212:32
Sunrise07:0313:03
Sunset16:2022:20
Evening civil twilight16:5122:51

Current date and time
Zulu (UTC)  07-Dec-2022 23:59:41
Local (UTC-6)  07-Dec-2022 17:59:41
 
METAR
KIGQ 
16nm N 
072335Z AUTO 32004KT 7SM OVC019 05/02 A3033 RMK AO2 T00500018
KIKK 
17nm SW 
072335Z AUTO 00000KT 10SM OVC017 05/03 A3034 RMK AO2 T00520029
KGYY 
22nm N 
072245Z 00000KT 5SM HZ OVC019 06/02 A3033
KRZL 
26nm SE 
072335Z AUTO 30005KT 5SM BR BKN018 05/03 A3033 RMK AO2
KVPZ 
28nm NE 
072256Z AUTO 35005KT 4SM BR OVC019 06/04 A3032 RMK AO2 SLP271 T00610039
KJOT 
30nm NW 
072335Z AUTO 00000KT 5SM BR OVC024 03/02 A3033 RMK AO2 T00300016
KLOT 
31nm NW 
072335Z AUTO 06004KT 6SM BR OVC023 03/02 A3034 RMK AO2
KMDW 
32nm N 
072353Z 03004KT 7SM BKN025 05/01 A3034 RMK AO2 SLP281 T00500011 10061 20039 51019
TAF
KGYY 
22nm N 
071721Z 0718/0818 32005KT 3SM BR SCT008 OVC015 TEMPO 0718/0721 2SM BR OVC009 FM072200 35006KT P6SM SCT025 BKN250 FM080400 01005KT P6SM SCT010 BKN015 FM081700 07009KT P6SM SCT010 BKN100
NOTAMs
Click for the latest NOTAMs
NOTAMs are issued by the DoD/FAA and will open in a separate window not controlled by AirNav.

 

 
 

Would you like to see your business listed on this page?

 If your business provides an interesting product or service to pilots, flight crews, aircraft, or users of the Mussman Airport, you should consider listing it here.  To start the listing process, click on the button below
 
Add a business
 

Other Pages about Mussman Airport

Update a link
 
Copyright © AirNav, LLC. All rights reserved. Privacy Policy  Contact